Regional Weather Roundup
Issued by NWS

Home | Current Version | Previous Version | Text Only | Print | Product List | Glossary On
Versions: 1 2 3 4 5 6 7 8 9 10 11 12 13 14 15 16 17 18 19 20 21 22 23 24 25 26 27 28 29 30 31 32 33 34 35 36 37 38 39 40 41 42 43 44 45 46 47 48 49 50
000
ASUS45 KREV 100010
RWRNV
NEVADA REGIONAL WEATHER ROUNDUP
NATIONAL WEATHER SERVICE RENO NV
400 PM PST FRI DEC 09 2016

NOTE: "FAIR" INDICATES FEW OR NO CLOUDS BELOW 12,000 FEET WITH NO
SIGNIFICANT WEATHER AND/OR OBSTRUCTIONS TO VISIBILITY.

NVZ001-003-004-100100-
WESTERN NEVADA

CITY           SKY/WX    TMP DP  RH WIND       PRES   REMARKS
RENO           NOT AVBL
CARSON CITY    CLOUDY    54  28  37 SW10G17   30.14F
MINDEN         FAIR      54  28  37 S13       30.14R
PYRAMID LAKE     N/A     57 N/A N/A S10         N/A
FALLON         MOCLDY    55  23  28 S8        30.07F
6HR MIN TEMP:  48; 6HR MAX TEMP:  59;

LOVELOCK       MOCLDY    51  31  46 E3        30.07F
6HR MIN TEMP:  40; 6HR MAX TEMP:  52;

HAWTHORNE        N/A     54  21  28 CALM      30.12F
$$

NVZ002-CAZ072-073-100100-
NORTHERN AND CENTRAL SIERRA

CITY           SKY/WX    TMP DP  RH WIND       PRES   REMARKS
S. LAKE TAHOE  CLOUDY    45  31  58 S14G21    30.17F
6HR MIN TEMP:  45; 6HR MAX TEMP:  47;

TRUCKEE        MOCLDY    43  32  65 S9G17     30.19S
                   6HR MAX TEMP:  46;

SQUAW VLY 8000   N/A     32  32 100 SW14        N/A
SUSANVILLE     MOCLDY    52  37  58 W6        30.07F
MAMMOTH LAKES  FAIR      46  25  45 W8        30.23F
6HR MIN TEMP:  46; 6HR MAX TEMP:  55;

BRIDGEPORT       N/A     45  24  43 VRB5      30.17F
$$

NVZ030-031-036-100100-
NORTHERN NEVADA

CITY           SKY/WX    TMP DP  RH WIND       PRES   REMARKS
ELKO           MOCLDY    41  27  57 CALM      30.09F
6HR MIN TEMP:  36; 6HR MAX TEMP:  46; 6HR PCP: TRACE;

WINNEMUCCA     MOCLDY    46  34  62 S8        30.06F
6HR MIN TEMP:  42; 6HR MAX TEMP:  51;

WENDOVER       PTCLDY    32  21  64 CALM      30.13S
$$

NVZ035-037-100100-
CENTRAL NEVADA

CITY           SKY/WX    TMP DP  RH WIND       PRES   REMARKS
ELY            MOCLDY    37  22  54 E3        30.17F
6HR MIN TEMP:  34; 6HR MAX TEMP:  44;

EUREKA           N/A     38  24  57 S8        30.14F
6HR MIN TEMP:  36; 6HR MAX TEMP:  45;

$$

NVZ013-014-100100-
SOUTH CENTRAL NEVADA

CITY           SKY/WX    TMP DP  RH WIND       PRES   REMARKS
TONOPAH        CLOUDY    43  30  60 CALM      30.21F
6HR MIN TEMP:  38; 6HR MAX TEMP:  45;

$$

NVZ017-020-022-100100-
SOUTHERN NEVADA

CITY           SKY/WX    TMP DP  RH WIND       PRES   REMARKS
LAS VEGAS      MOCLDY    55  11  17 CALM      30.22F
6HR MIN TEMP:  52; 6HR MAX TEMP:  56;

N. LAS VEGAS   CLEAR     53  12  19 CALM      30.22F
6HR MIN TEMP:  49; 6HR MAX TEMP:  54;

NELLIS AFB     MOCLDY    56  13  19 CALM      30.22F
6HR MIN TEMP:  46; 6HR MAX TEMP:  56;

HENDERSON      CLOUDY    52  14  22 CALM      30.24F
6HR MIN TEMP:  50; 6HR MAX TEMP:  53;

MERCURY        PTCLDY    50  13  22 SE8       30.20S
6HR MIN TEMP:  46; 6HR MAX TEMP:  53;

$$



USA.gov is the U.S. government's official web portal to all federal, state and local government web resources and services.